RH
21 23 26 27 26 25 22 19 17 17 16 14 12 11 9 9 8 7 7 8 12 18 18 13 11 12 12 12 13 14 14 15 17 18 18 19 20 20 20 20 20 20
19 20 22 23 24 24 22 21 19 17 16 14 11 10 9 9 9 9 10 11 14 20 21 16 13 13 13 13 13 14 15 16 16 17 18 18 19 19 18 18 20 20
22 27 29 29 29 29 32 32 25 16 13 12 11 11 11 11 11 12 14 15 14 19 24 20 15 14 13 13 14 14 15 15 15 16 17 17 17 17 18 19 19 20
30 39 46 48 49 49 49 47 39 28 16 10 9 11 13 14 15 14 13 13 12 16 23 23 17 14 14 13 14 14 15 15 15 16 16 16 17 18 19 20 19 20
35 40 44 50 57 63 68 68 65 56 39 21 13 14 16 14 11 9 8 7 10 14 20 23 20 16 14 14 14 15 16 15 16 16 16 16 18 19 20 20 21 24
35 34 38 49 54 53 63 73 72 67 60 48 39 36 32 23 10 3 4 5 7 11 16 20 20 17 15 15 16 16 17 17 17 17 18 19 20 21 21 22 24 26
30 27 30 42 40 30 38 57 67 73 73 67 65 63 59 50 27 6 3 5 5 8 12 16 17 17 18 18 18 19 18 19 20 21 21 23 23 23 23 25 26 28
36 33 27 25 21 19 32 55 76 88 86 78 74 73 76 76 52 19 6 8 8 9 12 16 20 21 22 22 20 21 22 22 22 23 23 24 25 25 25 27 29 30
43 42 36 32 31 30 40 62 80 82 80 80 77 76 84 89 69 35 15 12 14 16 17 19 22 23 23 23 23 23 23 23 23 23 24 24 25 26 27 29 30 29
54 53 52 53 55 54 58 74 82 76 70 68 69 77 85 88 82 61 38 30 35 37 34 27 22 23 25 24 25 26 23 23 24 23 23 24 25 27 29 29 29 27
58 64 70 72 77 84 84 83 84 81 70 53 52 70 80 81 87 84 68 60 63 61 51 38 27 25 26 26 26 27 24 24 26 25 24 26 28 30 31 31 30 26
55 60 67 75 88 96 88 82 87 86 73 53 47 60 77 88 92 87 82 79 77 77 68 47 31 26 26 28 29 27 26 27 28 28 27 29 30 31 31 30 28 24
59 58 60 67 81 87 79 83 93 86 77 73 65 58 66 83 86 76 79 85 85 90 82 53 31 27 27 29 30 28 28 29 30 30 29 30 30 29 27 25 23 20
51 55 59 61 72 80 81 90 92 80 77 84 86 79 68 68 72 66 70 85 88 87 79 54 35 30 29 30 29 29 31 31 30 31 30 30 28 25 23 21 20 17
52 57 59 60 71 79 81 91 92 81 80 83 90 97 81 63 70 75 76 88 89 81 74 58 41 34 32 32 30 29 32 32 30 31 30 28 26 23 20 20 19 16
49 49 47 58 81 90 87 94 96 87 88 91 92 98 84 62 67 81 90 98 94 84 80 65 46 40 40 36 32 30 32 32 31 32 30 27 26 23 19 18 17 16
40 38 44 65 90 98 92 92 93 87 86 91 95 100 93 77 69 74 87 98 94 89 89 74 54 49 48 42 36 32 32 33 35 34 32 28 25 20 17 16 16 17
45 40 51 72 86 90 82 74 80 84 80 81 91 100 103 98 86 77 83 95 96 96 97 85 68 59 56 50 41 34 33 36 39 38 35 29 22 17 16 15 15 16
47 42 48 64 77 86 81 73 79 87 82 79 85 91 98 103 99 93 94 98 100 101 100 92 79 70 66 59 47 39 38 41 43 43 39 30 20 15 14 14 14 14
47 48 46 51 64 78 84 84 87 91 89 84 79 77 87 99 102 100 100 100 100 102 99 92 83 79 76 67 53 45 45 48 50 49 42 30 19 15 13 12 12 12
49 51 45 43 52 70 86 91 89 88 88 83 75 73 83 95 99 100 100 101 101 100 95 88 85 86 84 72 60 55 55 56 58 56 46 30 18 14 12 11 11 11
47 46 42 43 55 73 92 99 94 90 89 82 75 77 84 87 90 93 96 97 96 92 89 84 84 88 86 75 69 69 68 67 67 63 49 31 19 16 13 10 10 11
44 39 34 42 59 72 85 93 92 93 99 93 79 79 88 91 92 93 94 96 96 93 90 88 87 88 84 76 76 78 79 82 78 66 48 31 22 18 14 11 11 11
42 32 27 42 60 63 65 77 86 94 105 103 89 83 89 96 100 100 97 98 101 99 96 95 94 91 84 81 85 89 91 92 82 62 45 32 24 19 15 11 11 11
41 33 33 47 61 61 63 76 85 85 86 87 85 85 85 87 95 101 100 99 101 101 98 96 95 94 91 91 96 98 97 91 75 56 42 32 25 20 15 13 11 11
45 40 36 42 53 59 60 65 65 61 66 81 88 84 78 79 88 96 97 96 99 100 98 95 95 96 96 98 99 99 94 83 66 50 40 32 25 21 16 14 12 12
Wind_Speed
22 23 24 25 25 24 24 24 25 26 27 27 27 27 27 27 26 25 24 24 23 22 22 22 21 20 21 22 22 23 24 25 26 28 29 30 31 31 32 33 34 35
22 23 24 26 27 27 26 25 25 26 27 28 28 28 27 27 27 26 25 24 23 23 23 23 22 22 22 23 24 25 25 26 27 29 30 31 32 33 34 35 36 37
23 23 24 26 28 28 27 26 27 27 27 27 27 27 27 26 27 27 26 25 24 24 24 24 23 23 23 24 25 26 27 27 28 29 31 32 33 34 35 36 37 38
25 25 25 27 28 29 28 28 29 29 29 29 28 27 27 25 25 26 26 25 24 24 24 24 24 24 24 25 26 27 27 28 29 30 32 33 34 35 35 36 38 38
27 27 27 29 30 30 31 31 33 33 32 31 29 28 27 25 23 24 25 25 24 24 24 25 25 25 25 26 26 27 28 28 30 31 33 34 34 34 35 36 37 38
27 27 29 31 32 32 33 34 35 35 34 32 31 30 29 26 23 23 23 24 24 24 24 25 26 25 25 26 26 27 27 29 30 31 32 33 33 34 35 36 37 37
27 27 27 30 32 33 34 35 36 36 35 34 33 32 31 27 24 22 22 22 23 23 24 25 25 26 26 26 26 26 27 28 29 30 31 32 32 33 34 35 36 36
28 27 27 28 30 30 32 34 36 35 35 34 33 34 32 27 24 23 22 22 23 23 24 25 26 27 27 27 26 26 26 27 28 30 30 31 32 33 34 34 35 35
29 28 27 27 27 27 28 31 35 37 37 36 34 35 33 29 25 24 23 24 24 23 23 25 27 28 28 27 26 26 26 27 29 30 30 31 32 33 34 34 35 37
32 31 29 27 26 28 28 29 33 38 39 38 38 38 36 32 29 27 26 27 27 26 25 26 27 28 27 27 26 26 27 28 30 31 31 32 33 34 35 36 37 39
33 34 34 33 31 31 32 32 35 36 37 38 39 38 37 35 34 33 32 31 30 29 28 27 28 28 27 27 26 25 27 28 30 31 32 33 34 35 36 37 39 41
33 34 36 38 37 37 38 38 37 35 34 37 38 38 37 36 35 37 37 35 32 31 30 29 29 28 26 25 25 26 27 28 30 32 33 34 35 37 38 38 39 41
35 37 39 41 42 43 41 39 38 38 37 37 37 36 36 36 36 38 41 38 34 32 31 31 30 29 26 25 26 27 28 28 30 32 33 34 36 37 38 38 39 41
37 39 42 45 47 49 48 44 40 35 32 34 35 33 35 37 38 39 41 40 36 33 32 33 32 30 27 26 27 28 28 28 30 32 33 34 35 37 38 38 39 42
38 39 43 48 51 52 52 48 40 31 29 30 31 33 37 38 38 39 40 39 37 34 34 34 33 31 29 28 28 29 28 28 30 32 32 33 35 37 38 39 40 42
39 41 44 51 54 54 56 54 47 39 38 35 30 34 38 39 39 41 41 39 37 35 35 35 35 34 32 30 29 29 28 27 29 30 31 33 36 38 39 40 41 42
38 41 44 49 50 48 46 43 38 36 42 40 35 37 39 40 42 44 43 41 39 37 36 37 36 36 35 31 30 29 27 27 28 30 32 36 39 40 40 41 41 42
39 39 41 42 39 36 35 31 30 35 41 41 39 39 41 42 43 44 45 44 41 39 39 39 39 39 37 33 31 29 28 27 28 29 33 37 39 39 40 42 43 43
40 38 38 38 34 33 35 36 35 38 41 42 42 42 42 44 44 43 43 44 43 42 41 41 40 40 39 35 32 30 28 27 27 29 34 38 39 39 41 43 44 44
41 42 40 37 35 36 38 39 39 39 42 42 43 45 43 43 44 42 40 41 42 42 42 41 41 41 40 37 33 29 28 28 29 30 35 38 39 40 43 45 45 43
42 44 44 41 38 35 35 39 40 41 44 44 44 44 41 39 40 37 35 37 40 41 41 41 41 42 41 37 34 31 30 31 31 32 36 38 39 41 43 44 43 41
45 44 44 42 39 35 36 39 41 43 46 48 45 41 37 34 34 33 33 36 40 41 41 41 42 41 39 36 34 34 34 34 33 35 38 38 39 42 43 42 41 39
47 46 45 42 38 38 40 41 44 47 47 47 45 40 34 31 33 34 37 40 41 42 43 43 41 39 37 35 35 37 38 36 35 38 38 37 39 42 42 41 40 39
49 49 46 42 40 42 44 42 44 46 44 43 44 40 33 31 33 37 41 44 43 42 43 42 38 36 35 34 35 39 40 37 36 38 38 38 40 42 41 41 40 39
49 48 45 43 43 45 46 44 43 43 44 45 45 42 38 35 35 37 40 42 40 39 41 41 37 34 33 32 34 38 38 36 38 38 37 38 40 41 41 41 40 39
48 46 43 43 44 45 45 46 46 46 46 44 41 40 39 38 38 39 39 39 37 35 36 37 36 35 34 33 34 36 37 38 38 37 37 39 40 40 40 41 40 39
Wind_Direction
299 296 296 295 294 292 293 295 296 296 295 294 293 293 293 293 293 294 296 298 300 302 304 306 308 308 309 312 314 315 314 312 311 312 313 314 315 317 319 320 321 321
296 294 294 292 291 290 290 291 292 291 291 290 289 289 290 291 292 294 294 296 298 299 300 302 305 306 307 310 311 311 311 310 310 309 309 311 313 315 318 320 321 321
294 292 293 293 292 291 289 290 289 287 284 283 284 285 286 288 291 292 293 294 295 294 295 297 300 303 304 305 306 307 307 307 307 307 307 309 311 314 317 319 320 320
300 296 296 297 296 294 291 292 292 290 285 282 281 281 281 283 285 288 289 290 290 290 290 291 294 297 299 301 302 303 303 304 305 306 306 308 311 313 315 317 317 317
304 303 303 301 299 296 293 292 293 294 291 287 284 282 281 282 283 285 285 285 285 286 286 286 289 292 295 297 299 299 300 302 304 305 307 308 311 312 313 315 315 315
304 305 306 302 298 296 293 291 292 294 295 292 288 284 282 284 286 285 283 282 282 284 285 284 286 290 293 295 296 296 298 302 304 306 308 309 310 311 312 312 313 314
304 304 302 296 294 294 292 291 292 293 294 292 288 285 283 285 287 286 284 282 282 283 284 283 283 287 292 294 294 295 299 303 306 308 309 309 310 310 311 311 312 313
301 303 302 297 296 296 294 294 293 291 291 289 286 284 284 284 285 287 289 288 287 286 284 282 281 283 288 292 293 296 301 305 308 310 309 309 310 309 309 310 312 313
301 304 305 303 301 298 294 292 292 291 292 289 285 284 284 284 285 287 291 292 290 289 287 283 281 282 286 291 293 297 303 308 310 311 310 309 308 308 308 310 313 315
300 301 303 305 302 296 291 287 288 292 293 290 286 284 284 285 285 284 287 290 291 291 290 287 284 284 287 290 293 299 304 307 311 312 311 309 307 308 310 312 315 317
300 299 299 301 298 292 289 284 282 288 292 290 285 283 284 286 285 284 284 287 291 292 291 290 288 286 287 289 293 300 303 306 311 313 310 308 308 310 311 312 315 316
301 300 299 299 295 291 290 287 283 285 288 289 285 281 283 286 285 286 286 286 288 289 288 290 289 287 288 291 295 300 302 304 308 310 308 308 309 311 312 312 314 315
303 304 302 300 295 288 285 282 282 283 284 285 286 284 281 282 285 287 288 287 285 284 286 288 289 289 292 295 298 300 300 301 304 305 306 308 310 312 312 312 314 315
309 310 304 300 295 287 282 278 277 282 287 283 283 286 284 282 286 287 286 284 280 279 282 286 288 291 294 297 298 299 299 300 301 304 307 309 311 311 312 313 314 312
316 313 307 304 299 288 282 278 272 277 298 295 284 286 287 282 283 285 284 282 277 275 279 283 286 289 292 294 297 299 300 301 303 306 309 310 311 312 312 312 310 308
317 313 308 306 303 292 281 273 267 276 300 306 293 285 283 278 276 277 280 278 272 270 275 280 283 286 288 291 296 299 299 301 305 309 312 314 315 315 313 310 307 306
318 315 310 307 310 309 296 280 275 290 306 308 297 285 278 274 270 268 271 272 268 267 273 278 280 282 284 287 293 295 295 300 306 311 315 319 319 316 311 308 307 306
319 320 316 313 316 325 324 315 310 312 314 314 308 294 282 276 271 266 266 268 267 268 273 276 278 280 281 283 288 289 291 297 305 312 317 320 318 313 309 307 306 305
320 322 319 314 311 313 321 327 323 319 321 323 319 306 289 278 273 268 265 265 265 268 273 275 276 278 278 279 282 285 288 295 303 310 315 316 314 311 308 307 307 305
319 320 316 312 309 308 313 321 324 324 326 327 324 316 299 279 271 269 263 261 263 267 271 273 274 275 276 276 278 281 286 293 299 305 310 311 311 310 309 308 308 306
316 316 315 312 311 308 310 319 324 324 325 324 324 321 307 282 267 263 258 258 263 268 269 270 272 273 274 276 278 279 285 290 295 302 307 308 308 308 309 309 308 307
312 313 314 312 312 309 308 314 318 319 321 320 319 319 312 286 263 253 253 259 265 267 267 269 271 272 273 277 278 280 285 288 293 301 305 304 305 307 309 310 310 310
310 312 313 313 313 311 308 306 305 309 316 317 312 312 309 289 265 257 263 268 268 269 270 270 271 273 275 278 280 283 285 286 291 300 303 302 304 307 309 311 312 312
307 310 313 315 313 311 310 305 299 303 311 312 307 304 300 287 274 274 278 278 274 274 276 276 276 277 280 282 284 286 285 285 293 300 302 302 305 308 309 312 313 312
304 308 312 314 311 308 307 302 299 303 306 305 303 301 297 291 287 289 291 287 282 280 281 281 281 284 285 284 283 284 286 290 296 301 303 304 306 308 310 312 312 312
299 304 310 311 308 305 304 303 304 306 307 306 305 303 299 295 295 297 297 294 289 286 284 282 282 283 283 279 279 285 292 296 299 302 304 305 306 307 309 311 311 312